Time,TemperatureF,DewpointF,PressureIn,WindDirection,WindDirectionDegrees,WindSpeedMPH,WindSpeedGustMPH,Humidity,HourlyPrecipIn,Conditions,Clouds,dailyrainin,SolarRadiationWatts/m^2,SoftwareType,DateUTC
2013-09-10 00:04:00,67.0,66.0,30.40,NNE,31,1.0,2.0,98,0.00,,,0.00,0.000000,,2013-09-10 04:04:00,
2013-09-10 00:13:00,67.0,66.0,30.40,NNE,31,1.0,2.0,98,0.00,,,0.00,0.000000,,2013-09-10 04:13:00,
2013-09-10 00:43:00,68.0,68.0,30.39,East,92,2.0,2.0,99,0.00,,,0.00,0.000000,,2013-09-10 04:43:00,
2013-09-10 00:53:00,68.0,68.0,30.39,East,92,2.0,2.0,99,0.00,,,0.00,0.000000,,2013-09-10 04:53:00,
2013-09-10 01:03:00,68.0,68.0,30.39,East,92,2.0,2.0,99,0.00,,,0.00,0.000000,,2013-09-10 05:03:00,
2013-09-10 01:13:00,68.0,68.0,30.39,East,92,2.0,2.0,99,0.00,,,0.00,0.000000,,2013-09-10 05:13:00,
2013-09-10 01:43:00,66.0,66.0,30.40,NE,41,2.0,3.0,99,0.00,,,0.00,0.000000,,2013-09-10 05:43:00,
2013-09-10 01:53:00,66.0,66.0,30.40,NE,41,2.0,3.0,99,0.00,,,0.00,0.000000,,2013-09-10 05:53:00,
2013-09-10 02:03:00,66.0,66.0,30.40,NE,41,2.0,3.0,99,0.00,,,0.00,0.000000,,2013-09-10 06:03:00,
2013-09-10 02:12:00,66.0,66.0,30.40,NE,41,2.0,3.0,99,0.00,,,0.00,0.000000,,2013-09-10 06:12:00,
2013-09-10 02:43:00,67.0,67.0,30.40,NNE,28,1.0,2.0,100,0.00,,,0.00,0.000000,,2013-09-10 06:43:00,
2013-09-10 02:52:00,67.0,67.0,30.40,NNE,28,1.0,2.0,100,0.00,,,0.00,0.000000,,2013-09-10 06:52:00,
2013-09-10 03:01:00,67.0,67.0,30.40,NNE,28,1.0,2.0,100,0.00,,,0.00,0.000000,,2013-09-10 07:01:00,
2013-09-10 03:12:00,67.0,67.0,30.40,NNE,28,1.0,2.0,100,0.00,,,0.00,0.000000,,2013-09-10 07:12:00,
2013-09-10 03:42:00,66.0,66.0,30.40,NNW,344,2.0,3.0,100,0.00,,,0.00,0.000000,,2013-09-10 07:42:00,
2013-09-10 03:52:00,66.0,66.0,30.40,NNW,344,2.0,3.0,100,0.00,,,0.00,0.000000,,2013-09-10 07:52:00,
2013-09-10 04:02:00,66.0,66.0,30.40,NNW,344,2.0,3.0,100,0.00,,,0.00,0.000000,,2013-09-10 08:02:00,
2013-09-10 04:12:00,66.0,66.0,30.40,NNW,344,2.0,3.0,100,0.00,,,0.00,0.000000,,2013-09-10 08:12:00,
2013-09-10 04:42:00,66.0,66.0,30.40,North,6,1.0,3.0,99,0.00,,,0.00,0.000000,,2013-09-10 08:42:00,
2013-09-10 04:52:00,66.0,66.0,30.40,North,6,1.0,3.0,99,0.00,,,0.00,0.000000,,2013-09-10 08:52:00,
2013-09-10 05:02:00,66.0,66.0,30.40,North,6,1.0,3.0,99,0.00,,,0.00,0.000000,,2013-09-10 09:02:00,
2013-09-10 05:12:00,66.0,66.0,30.40,North,6,1.0,3.0,99,0.00,,,0.00,0.000000,,2013-09-10 09:12:00,
2013-09-10 05:43:00,65.0,65.0,30.41,ENE,60,1.0,2.0,100,0.00,,,0.00,0.000000,,2013-09-10 09:43:00,
2013-09-10 05:54:00,65.0,65.0,30.41,ENE,60,1.0,2.0,100,0.00,,,0.00,0.000000,,2013-09-10 09:54:00,
2013-09-10 06:03:00,65.0,65.0,30.41,ENE,60,1.0,2.0,100,0.00,,,0.00,0.000000,,2013-09-10 10:03:00,
2013-09-10 06:13:00,65.0,65.0,30.41,ENE,60,1.0,2.0,100,0.00,,,0.00,0.000000,,2013-09-10 10:13:00,
2013-09-10 06:43:00,64.0,64.0,30.42,NNE,27,2.0,3.0,100,0.00,,,0.00,0.000000,,2013-09-10 10:43:00,
2013-09-10 06:53:00,64.0,64.0,30.42,NNE,27,2.0,3.0,100,0.00,,,0.00,0.000000,,2013-09-10 10:53:00,
2013-09-10 07:03:00,64.0,64.0,30.42,NNE,27,2.0,3.0,100,0.00,,,0.00,0.000000,,2013-09-10 11:03:00,
2013-09-10 07:12:00,64.0,64.0,30.42,NNE,27,2.0,3.0,100,0.00,,,0.00,0.000000,,2013-09-10 11:12:00,
2013-09-10 09:52:00,79.0,74.0,30.46,East,85,4.0,7.0,85,-99.99,,,0.00,256.000000,,2013-09-10 13:52:00,
2013-09-10 10:02:00,79.0,74.0,30.46,East,85,4.0,7.0,85,-99.99,,,0.00,256.000000,,2013-09-10 14:02:00,
2013-09-10 10:11:00,79.0,74.0,30.46,East,85,4.0,7.0,85,-99.99,,,0.00,256.000000,,2013-09-10 14:11:00,
2013-09-10 10:52:00,86.0,72.0,30.48,NE,50,4.0,9.0,63,0.00,,,0.00,488.000000,,2013-09-10 14:52:00,
2013-09-10 11:02:00,86.0,72.0,30.48,NE,50,4.0,9.0,63,0.00,,,0.00,488.000000,,2013-09-10 15:02:00,
2013-09-10 11:12:00,86.0,72.0,30.48,NE,50,4.0,9.0,63,0.00,,,0.00,488.000000,,2013-09-10 15:12:00,
2013-09-10 11:54:00,90.0,71.0,30.48,SSE,168,3.0,10.0,54,0.00,,,0.00,690.000000,,2013-09-10 15:54:00,
2013-09-10 12:03:00,90.0,71.0,30.48,SSE,168,3.0,10.0,54,0.00,,,0.00,690.000000,,2013-09-10 16:03:00,
2013-09-10 12:13:00,90.0,71.0,30.48,SSE,168,3.0,10.0,54,0.00,,,0.00,690.000000,,2013-09-10 16:13:00,
2013-09-10 12:43:00,90.0,68.0,30.47,SSW,202,4.0,12.0,49,0.00,,,0.00,844.000000,,2013-09-10 16:43:00,
2013-09-10 12:53:00,90.0,68.0,30.47,SSW,202,4.0,12.0,49,0.00,,,0.00,844.000000,,2013-09-10 16:53:00,
2013-09-10 13:03:00,90.0,68.0,30.47,SSW,202,4.0,12.0,49,0.00,,,0.00,844.000000,,2013-09-10 17:03:00,
2013-09-10 13:12:00,90.0,68.0,30.47,SSW,202,4.0,12.0,49,0.00,,,0.00,844.000000,,2013-09-10 17:12:00,
2013-09-10 13:43:00,88.0,66.0,30.47,NE,51,7.0,13.0,48,0.00,,,0.00,933.000000,,2013-09-10 17:43:00,
2013-09-10 13:53:00,88.0,66.0,30.47,NE,51,7.0,13.0,48,0.00,,,0.00,933.000000,,2013-09-10 17:53:00,
2013-09-10 14:02:00,88.0,66.0,30.47,NE,51,7.0,13.0,48,0.00,,,0.00,933.000000,,2013-09-10 18:02:00,
2013-09-10 14:12:00,88.0,66.0,30.47,NE,51,7.0,13.0,48,0.00,,,0.00,933.000000,,2013-09-10 18:12:00,
2013-09-10 14:43:00,91.0,67.0,30.46,ESE,117,7.0,18.0,45,0.00,,,0.00,926.000000,,2013-09-10 18:43:00,
2013-09-10 14:52:00,91.0,67.0,30.46,ESE,117,7.0,18.0,45,0.00,,,0.00,926.000000,,2013-09-10 18:52:00,
2013-09-10 15:02:00,91.0,67.0,30.46,ESE,117,7.0,18.0,45,0.00,,,0.00,926.000000,,2013-09-10 19:02:00,
2013-09-10 15:12:00,91.0,67.0,30.46,ESE,117,7.0,18.0,45,0.00,,,0.00,926.000000,,2013-09-10 19:12:00,
2013-09-10 15:42:00,88.0,70.0,30.44,ESE,122,7.0,15.0,55,0.00,,,0.00,929.000000,,2013-09-10 19:42:00,
2013-09-10 15:52:00,88.0,70.0,30.44,ESE,122,7.0,15.0,55,0.00,,,0.00,929.000000,,2013-09-10 19:52:00,
2013-09-10 16:02:00,88.0,70.0,30.44,ESE,122,7.0,15.0,55,0.00,,,0.00,929.000000,,2013-09-10 20:02:00,
2013-09-10 16:12:00,88.0,70.0,30.44,ESE,122,7.0,15.0,55,0.00,,,0.00,929.000000,,2013-09-10 20:12:00,
2013-09-10 16:42:00,84.0,70.0,30.43,SE,126,10.0,18.0,62,0.00,,,0.00,378.000000,,2013-09-10 20:42:00,
2013-09-10 16:52:00,84.0,70.0,30.43,SE,126,10.0,18.0,62,0.00,,,0.00,378.000000,,2013-09-10 20:52:00,
2013-09-10 17:03:00,84.0,70.0,30.43,SE,126,10.0,18.0,62,0.00,,,0.00,378.000000,,2013-09-10 21:03:00,
2013-09-10 17:12:00,84.0,70.0,30.43,SE,126,10.0,18.0,62,0.00,,,0.00,378.000000,,2013-09-10 21:12:00,
2013-09-10 17:44:00,85.0,69.0,30.42,SE,138,8.0,18.0,59,0.00,,,0.00,239.000000,,2013-09-10 21:44:00,
2013-09-10 17:54:00,85.0,69.0,30.42,SE,138,8.0,18.0,59,0.00,,,0.00,239.000000,,2013-09-10 21:54:00,
2013-09-10 18:04:00,85.0,69.0,30.42,SE,138,8.0,18.0,59,0.00,,,0.00,239.000000,,2013-09-10 22:04:00,
2013-09-10 18:14:00,85.0,69.0,30.42,SE,138,8.0,18.0,59,0.00,,,0.00,239.000000,,2013-09-10 22:14:00,
2013-09-10 18:42:00,82.0,67.0,30.42,SE,143,6.0,17.0,60,0.00,,,0.00,262.000000,,2013-09-10 22:42:00,
2013-09-10 18:55:00,82.0,67.0,30.42,SE,143,6.0,17.0,60,0.00,,,0.00,262.000000,,2013-09-10 22:55:00,
2013-09-10 19:03:00,82.0,67.0,30.42,SE,143,6.0,17.0,60,0.00,,,0.00,262.000000,,2013-09-10 23:03:00,
2013-09-10 19:13:00,82.0,67.0,30.42,SE,143,6.0,17.0,60,0.00,,,0.00,262.000000,,2013-09-10 23:13:00,
2013-09-10 19:42:00,78.0,67.0,30.43,SSE,149,3.0,11.0,68,0.00,,,-99.99,56.000000,,2013-09-10 23:42:00,
2013-09-10 19:53:00,78.0,67.0,30.43,SSE,149,3.0,11.0,68,0.00,,,-99.99,56.000000,,2013-09-10 23:53:00,
2013-09-10 20:02:00,78.0,67.0,30.43,SSE,149,3.0,11.0,68,0.00,,,-99.99,56.000000,,2013-09-11 00:02:00,
2013-09-10 20:11:00,78.0,67.0,30.43,SSE,149,3.0,11.0,68,0.00,,,-99.99,56.000000,,2013-09-11 00:11:00,
2013-09-10 20:42:00,74.0,70.0,30.43,SE,134,2.0,6.0,86,0.00,,,0.00,0.000000,,2013-09-11 00:42:00,
2013-09-10 20:52:00,74.0,70.0,30.43,SE,134,2.0,6.0,86,0.00,,,0.00,0.000000,,2013-09-11 00:52:00,
2013-09-10 21:02:00,74.0,70.0,30.43,SE,134,2.0,6.0,86,0.00,,,0.00,0.000000,,2013-09-11 01:02:00,
2013-09-10 21:11:00,74.0,70.0,30.43,SE,134,2.0,6.0,86,0.00,,,0.00,0.000000,,2013-09-11 01:11:00,
2013-09-10 23:55:00,68.0,67.0,30.45,NNE,13,2.0,3.0,98,-99.99,,,0.00,0.000000,,2013-09-11 03:55:00,